Location: Baumgarten
(49.0970°N, 12.7493°E)
Time: 05:51:38
(UTC+00:00)

ISS - Visible Passes

Search period start: 23 September 2020 00:00
Search period end: 03 October 2020 00:00
Orbit: 419 x 420 km, 51.6° (Epoch: 23 September)

Date Brightness Start Highest point End Pass type
(mag) Time Alt. Az. Time Alt. Az. Time Alt. Az.
23 Sep -3.3 18:56:30 10° W 18:59:51 57° N 19:00:25 49° NE visible
24 Sep -3.5 18:09:02 10° W 18:12:24 66° NNW 18:14:50 17° ENE visible
24 Sep -1.5 19:46:08 10° WNW 19:47:47 26° WNW 19:47:47 26° WNW visible
25 Sep -3.3 18:58:39 10° WNW 19:01:59 53° N 19:02:09 52° NNE visible
26 Sep -3.2 18:11:10 10° W 18:14:29 53° N 18:16:30 21° ENE visible
26 Sep -1.2 19:48:08 10° WNW 19:49:27 22° WNW 19:49:27 22° WNW visible
27 Sep -3.3 17:23:39 10° W 17:26:59 57° N 17:30:20 10° ENE visible
27 Sep -3.4 19:00:41 10° WNW 19:03:46 61° NNW 19:03:46 61° NNW visible
28 Sep -3.4 18:13:13 10° WNW 18:16:33 56° N 18:18:06 28° ENE visible
28 Sep -0.9 19:50:06 10° WNW 19:51:03 17° WNW 19:51:03 17° WNW visible
29 Sep -3.3 17:25:42 10° WNW 17:29:02 53° N 17:32:21 10° E visible
29 Sep -3.1 19:02:37 10° WNW 19:05:23 56° W 19:05:23 56° W visible
30 Sep -3.8 18:15:08 10° WNW 18:18:32 79° NNE 18:19:43 37° E visible
30 Sep -0.6 19:52:12 10° W 19:52:41 13° W 19:52:41 13° W visible
01 Oct -3.6 17:27:39 10° WNW 17:31:01 65° NNE 17:34:05 12° E visible
01 Oct -2.4 19:04:34 10° WNW 19:07:03 35° WSW 19:07:03 35° WSW visible
02 Oct -3.4 18:17:00 10° WNW 18:20:20 58° SSW 18:21:28 36° SE visible
